This demonstration page uses our WeatherBlox Daily Observations layout. Learn more.

40.92945, -100.16068

Hourly Observations for June 11, 2017

Temp ( °F °C ) Dew Point ( °F °C ) Humidity (%) Winds ( mph kmh ) Pressure ( in mb ) Visibility ( mi km ) Precip ( " mm )
12:15 am 00:15 Clear 81 27.3 69 20.5 66 66 SSE 21 33 29.44 997 10 16.0934 0 0
12:35 am 00:35 Clear 81 27 69 20.3 67 67 SSE 16 26 29.44 997 10 16.0934 0 0
12:55 am 00:55 Clear 80 26.5 68 20.1 68 68 SSE 18 30 29.44 997 10 16.0934 0 0
1:15 am 01:15 Clear 79 26.1 68 20 69 69 SSE 20 31 29.47 998 10 16.0934 0 0
1:35 am 01:35 Clear 79 26 67 19.6 68 68 S 18 30 29.47 998 10 16.0934 0 0
1:55 am 01:55 Clear 78 25.6 67 19.5 69 69 S 20 31 29.47 998 10 16.0934 0 0
2:15 am 02:15 Clear 78 25.3 67 19.3 69 69 S 18 30 29.44 997 10 16.0934 0 0
2:35 am 02:35 Clear 77 25.1 66 19.1 69 69 S 24 39 29.44 997 10 16.0934 0 0
2:55 am 02:55 Clear 77 25 67 19.2 70 70 S 20 31 29.44 997 10 16.0934 0 0
3:15 am 03:15 Clear 76 24.5 66 19 72 72 S 22 35 29.44 997 10 16.0934 0 0
3:35 am 03:35 Clear 76 24.5 66 19.1 72 72 S 24 39 29.44 997 10 16.0934 0 0
3:55 am 03:55 Clear 75 24 66 19.1 74 74 S 21 33 29.44 997 10 16.0934 0 0
4:15 am 04:15 Clear 75 23.8 66 19.1 75 75 S 21 33 29.44 997 10 16.0934 0 0
4:35 am 04:35 Clear 75 23.7 66 19.1 76 76 S 22 35 29.44 997 10 16.0934 0 0
4:55 am 04:55 Clear 74 23.5 66 19.1 76 76 S 17 28 29.44 997 10 16.0934 0 0
5:15 am 05:15 Clear 74 23.2 66 19.1 78 78 S 16 26 29.44 997 10 16.0934 0 0
5:35 am 05:35 Clear 74 23.1 66 19 78 78 S 17 28 29.44 997 10 16.0934 0 0
5:55 am 05:55 Clear 73 22.9 66 19 79 79 SSE 16 26 29.41 996 10 16.0934 0 0
6:15 am 06:15 Sunny 73 22.7 66 19 80 80 S 14 22 29.44 997 10 16.0934 0 0
6:35 am 06:35 Sunny 73 22.7 66 19 80 80 SSE 10 17 29.44 997 10 16.0934 0 0
6:55 am 06:55 Sunny 73 23 66 19 78 78 S 14 22 29.44 997 10 16.0934 0 0
7:15 am 07:15 Sunny 74 23.2 66 19 77 77 S 14 22 29.44 997 10 16.0934 0 0
7:35 am 07:35 Sunny 74 23.5 66 19.1 76 76 S 13 20 29.44 997 10 16.0934 0 0
7:55 am 07:55 Sunny 75 24 66 19.1 74 74 S 16 26 29.44 997 10 16.0934 0 0
8:15 am 08:15 Sunny 76 24.3 67 19.2 73 73 S 17 28 29.44 997 10 16.0934 0 0
8:35 am 08:35 Sunny 77 24.8 66 19.1 71 71 SSW 17 28 29.47 998 10 16.0934 0 0
8:55 am 08:55 Sunny 78 25.4 67 19.3 69 69 SSW 16 26 29.47 998 10 16.0934 0 0
9:15 am 09:15 Sunny 79 25.9 66 19.1 66 66 SSW 14 22 29.5 999 10 16.0934 0 0
9:35 am 09:35 Sunny 80 26.5 66 18.8 63 63 SSW 16 26 29.5 999 10 16.0934 0 0
9:55 am 09:55 Sunny 81 27.2 66 19 61 61 SW 14 22 29.47 998 10 16.0934 0 0
10:15 am 10:15 Sunny 82 27.6 66 18.7 58 58 SW 10 17 29.47 998 10 16.0934 0 0
10:35 am 10:35 Sunny 83 28.2 65 18.6 56 56 SSW 9 15 29.47 998 10 16.0934 0 0
10:55 am 10:55 Sunny 83 28.6 65 18.1 53 53 W 5 7 29.47 998 10 16.0934 0 0
11:15 am 11:15 Sunny 84 29.1 64 17.9 51 51 W 6 9 29.47 998 10 16.0934 0 0
11:35 am 11:35 Sunny 85 29.5 65 18.3 51 51 SW 3 6 29.47 998 10 16.0934 0 0
11:55 am 11:55 Sunny 85 29.5 65 18.1 50 50 NNW 3 6 29.5 999 10 16.0934 0 0
12:15 pm 12:15 Sunny 85 29.5 64 17.8 49 49 Calm 29.5 999 10 16.0934 0 0
12:35 pm 12:35 Sunny 86 29.8 66 18.9 52 52 NNW 5 7 29.5 999 10 16.0934 0 0
12:55 pm 12:55 Sunny 86 30 66 19.1 52 52 Calm 29.5 999 10 16.0934 0 0
1:15 pm 13:15 Sunny 87 30.3 65 18.6 50 50 Calm 29.5 999 10 16.0934 0 0
1:35 pm 13:35 Sunny 87 30.4 68 19.9 53 53 NNE 6 9 29.53 1000 10 16.0934 0 0
1:55 pm 13:55 Sunny 87 30.3 67 19.6 53 53 NNE 3 6 29.53 1000 10 16.0934 0 0
2:15 pm 14:15 Sunny 88 31 69 20.5 54 54 NE 7 11 29.53 1000 10 16.0934 0 0
2:35 pm 14:35 Sunny 88 31.1 68 20 52 52 NNE 9 15 29.53 1000 10 16.0934 0 0
2:55 pm 14:55 Sunny 88 31.2 66 19.1 49 49 E 3 6 29.5 999 10 16.0934 0 0
3:15 pm 15:15 Sunny 89 31.7 67 19.6 49 49 ENE 8 13 29.5 999 10 16.0934 0 0
3:35 pm 15:35 Sunny 89 31.8 68 19.8 49 49 ENE 8 13 29.5 999 10 16.0934 0 0
3:55 pm 15:55 Sunny 90 32.1 69 20.4 50 50 E 3 6 29.5 999 10 16.0934 0 0
4:15 pm 16:15 Sunny 89 31.8 68 20.1 50 50 NNE 5 7 29.5 999 10 16.0934 0 0
4:35 pm 16:35 Sunny 90 32.3 68 20.1 48 48 NNE 6 9 29.5 999 10 16.0934 0 0
4:55 pm 16:55 Sunny 90 32.1 68 20 49 49 NE 3 6 29.5 999 10 16.0934 0 0
5:15 pm 17:15 Sunny 90 32.2 68 20.1 49 49 NE 6 9 29.5 999 10 16.0934 0 0
5:35 pm 17:35 Sunny 90 32.2 68 19.9 48 48 N 8 13 29.5 999 10 16.0934 0 0
5:55 pm 17:55 Sunny 90 32 68 20.2 50 50 N 10 17 29.5 999 10 16.0934 0 0
6:15 pm 18:15 Sunny 89 31.6 68 19.9 50 50 NNE 8 13 29.5 999 10 16.0934 0 0
6:35 pm 18:35 Sunny 89 31.4 68 19.8 50 50 NNE 12 19 29.5 999 10 16.0934 0 0
6:55 pm 18:55 Sunny 88 31 69 20.4 53 53 NNE 13 20 29.53 1000 10 16.0934 0 0
7:15 pm 19:15 Sunny 87 30.5 69 20.6 55 55 NNE 12 19 29.53 1000 10 16.0934 0 0
7:35 pm 19:35 Sunny 87 30.4 68 20.2 54 54 NNE 14 22 29.53 1000 10 16.0934 0 0
7:55 pm 19:55 Sunny 86 30.2 67 19.7 53 53 NNE 14 22 29.53 1000 10 16.0934 0 0
8:15 pm 20:15 Sunny 85 29.5 68 20.1 57 57 NE 12 19 29.53 1000 10 16.0934 0 0
8:35 pm 20:35 Sunny 85 29.2 69 20.4 59 59 NNE 15 24 29.53 1000 10 16.0934 0 0
8:55 pm 20:55 Sunny 83 28.6 69 20.8 63 63 NNE 12 19 29.53 1000 10 16.0934 0 0
9:15 pm 21:15 Clear 82 28 69 20.8 65 65 ESE 9 15 29.53 1000 10 16.0934 0 0
9:35 pm 21:35 Partly Cloudy 82 27.7 69 20.7 66 66 NNE 18 30 29.53 1000 10 16.0934 0 0
9:55 pm 21:55 Clear 81 27.2 69 20.7 68 68 ENE 10 17 29.59 1002 10 16.0934 0 0
10:15 pm 22:15 Clear 81 27.1 69 20.6 68 68 NE 16 26 29.59 1002 10 16.0934 0 0
10:35 pm 22:35 Clear 80 26.8 69 20.5 68 68 NE 15 24 29.59 1002 10 16.0934 0 0
10:55 pm 22:55 Clear 80 26.5 69 20.5 70 70 ENE 10 17 29.59 1002 10 16.0934 0 0
11:15 pm 23:15 Clear 79 26.1 69 20.5 71 71 NE 9 15 29.62 1003 10 16.0934 0 0
11:35 pm 23:35 Clear 78 25.7 69 20.5 73 73 ENE 10 17 29.62 1003 10 16.0934 0 0
11:55 pm 23:55 Clear 77 25 69 20.6 77 77 ENE 10 17 29.62 1003 10 16.0934 0 0

Powered by AerisWeather